Simultaneous Nadir Overpasses (SNOs) Predictions

Prediction of SNOs between AQUA and NOAA-19 Satellite Orbit:

Table of predicted SNOs for the next 14.0 days since TLE Epoch: 4/9/2022
Index Date (AQUA) Time (AQUA) Lat,Lon (AQUA) SZA (AQUA ) Date (NOAA-19) Time (NOAA-19) Lat,Lon (NOAA-19) SZA (NOAA-19 ) Distance(km) Time Diff (sec)
1 04/10/2022 19:55:13 -77.83, 43.63 109.79 04/10/2022 19:54:47 -77.83, 43.80 109.80 4.01 26
2 04/10/2022 20:44:40 77.83,-148.74 70.20 04/10/2022 20:45:40 77.87,-148.70 70.21 3.76 60
3 04/13/2022 01:28:44 77.79, 140.45 69.33 04/13/2022 01:27:42 77.77, 140.36 69.34 2.66 62
4 04/13/2022 02:18:11 -77.84, -52.13 110.62 04/13/2022 02:18:47 -77.81, -52.18 110.65 3.05 36
5 04/15/2022 07:51:42 77.82, 44.58 68.55 04/15/2022 07:51:41 77.79, 44.55 68.52 3.19 1
6 04/17/2022 13:25:11 -77.77, 141.44 112.32 04/17/2022 13:24:47 -77.77, 141.25 112.30 4.56 24
7 04/17/2022 14:14:39 77.83, -51.18 67.75 04/17/2022 14:15:40 77.81, -51.28 67.72 3.26 61
8 04/19/2022 18:58:41 77.75,-121.85 66.88 04/19/2022 18:57:40 77.78,-121.85 66.93 3.15 61
9 04/19/2022 19:48:08 -77.79, 45.61 113.08 04/19/2022 19:48:45 -77.82, 45.59 113.07 2.85 37
10 04/22/2022 01:21:38 77.80, 142.21 66.16 04/22/2022 01:21:39 77.79, 142.28 66.15 2.22 1



Historial Predications of SNOs between AQUA and NOAA-19
